Hourly Data Report for October 28, 2015

All times are specified in Local Standard Time (LST). Add 1 hour to adjust for Daylight Saving Time where and when it is observed.

PETAWAWA AWOS 2
ONTARIO

45°57'00.000" N
77°19'00.000" W
130.10 m
6106396
71625
YWA

Download Data

Hourly Data (October 2015)
Hourly Data Report for October 28, 2015
Temp Definition
°C
Dew Point Temp Definition
°C
Rel Hum Definition
%
Wind Dir Definition
10's deg

Wind Spd Definition
km/h
Visibility Definition
km
Stn Press Definition
kPa
Hmdx Definition


Wind Chill Definition


Weather Definition


TIME
00:00 4.8 1.8 81 13 6 14.5 101.44     LegendNANA
01:00 4.7 1.4 79 14 7 14.5 101.38     LegendNANA
02:00 4.6 0.6 75 13 17 14.5 101.30     LegendNANA
03:00 4.7 0.4 74 13 15 14.5 101.19     LegendNANA
04:00 4.8 0.3 73 14 19 14.5 101.03     LegendNANA
05:00 4.7 -0.1 71 14 19 14.5 100.91     LegendNANA
06:00 4.7 -0.5 69 13 19 14.5 100.78     LegendNANA
07:00 4.9 -0.2 70 13 24 14.5 100.67     LegendNANA
08:00 5.3 0.5 71 12 20 14.5 100.62     LegendNANA
09:00 5.9 0.6 69 13 26 14.5 100.50     LegendNANA
10:00 5.6 2.2 79 14 20 12.9 100.34     Rain
11:00 5.6 4.0 89 13 22 8.0 100.13     Rain
12:00 5.9 4.4 90 13 28 11.3 99.87     Rain
13:00 5.7 4.9 95 14 32 3.2 99.65     Rain
14:00 5.9 4.9 93 14 35 9.7 99.53     Rain
15:00 5.9 4.9 93 14 33 6.4 99.31     Rain
16:00 6.1 5.1 93 13 33 8.0 99.13     Rain
17:00 6.4 5.5 94 13 32 14.5 98.94     Rain
18:00 6.8 6.2 96 14 26 3.5 98.82     Rain
19:00 7.2 6.5 95 14 26 6.4 98.66     Drizzle
20:00 7.5 6.9 96 14 22 9.7 98.54     Rain
21:00 7.7 7.1 96 14 24 5.6 98.41     Drizzle
22:00 7.9 7.4 97 14 22 8.0 98.27     Drizzle
23:00 8.0 7.7 98 13 19 14.5 98.11     Drizzle

Notes on Data Quality.

Legend

  • E = Estimated
  • M = Missing
  • NA = Not Available
  • ‡ = Partner data that is not subject to review by the National Climate Archives
Date modified: